Location: Barcelona
(41.3830°N, 2.1830°E)
Time: 00:57:28
(UTC+02:00)

ISS - Pass Details

Date: 12 July 2019
Orbit: 409 x 418 km, 51.6° (Epoch: 23 July)

Event Time Altitude Azimuth Distance (km) Brightness Sun altitude
Exits shadow 03:11:46 14° 313° (NW) 1,251 -1.1 -24.3°
Maximum altitude 03:13:13 18° 345° (NNW) 1,089 -1.1 -24.2°
Drops below altitude 10° 03:15:37 10° 31° (NNE) 1,481 0.1 -24.0°
Sets 03:18:10 0° 51° (NE) 2,342 1.0 -23.8°
